Regional Weather Roundup
Issued by NWS

Home | Current Version | Previous Version | Graphics & Text | Print | Product List | Glossary On
Versions: 1 2 3 4 5 6 7 8 9 10 11 12 13 14 15 16 17 18 19 20 21 22 23 24 25 26 27 28 29 30 31 32 33 34 35 36 37 38 39 40 41 42 43 44 45 46 47 48 49 50
000
ASUS43 KLSX 241707
RWRMO

WEATHER SUMMARY FOR MISSOURI
NATIONAL WEATHER SERVICE SPRINGFIELD MO
1200 PM CDT SAT JUN 24 2017

NOTE: "FAIR" INDICATES FEW OR NO CLOUDS BELOW 12,000 FEET WITH NO
       SIGNIFICANT WEATHER AND/OR OBSTRUCTIONS TO VISIBILITY.
       CURRENT SKY AND/OR WEATHER CONDITIONS ARE NOT AVAILABLE FOR
       CHILLICOTHE AND FARMINGTON.

MOZ001>031-035>038-043-044-053-054-241800-
...NORTHERN AND WESTERN MISSOURI...

CITY           SKY/WX    TMP DP  RH WIND       PRES   REMARKS
KANSAS CTY INT MOSUNNY   74  47  38 NW6       30.25R
KANSAS C DTWN  SUNNY     76  41  28 NW8       30.23S
LEE`S SUMMIT   SUNNY     74  41  30 N12       30.24F
ST JOSEPH      SUNNY     75  43  31 NW12      30.23S
CHILLICOTHE      N/A     74  43  32 NW5       30.22S
KIRKSVILLE     SUNNY     72  44  36 NW10      30.20R

$$
MOZ066>068-077>081-088>096-101>105-241800-
...SOUTHWEST MISSOURI...

CITY           SKY/WX    TMP DP  RH WIND       PRES   REMARKS
SPRINGFIELD    SUNNY     74  51  44 N7G17     30.21S
JOPLIN         MOSUNNY   78  55  44 N7        30.23F
BRANSON        PTSUNNY   75  55  50 N8        30.22S

$$
MOZ032>034-039>042-045>050-055>058-069>072-241800-
...CENTRAL MISSOURI...

CITY           SKY/WX    TMP DP  RH WIND       PRES   REMARKS
COLUMBIA       SUNNY     75  48  38 N17       30.18S
JEFFERSON CITY SUNNY     75  46  35 NW12G24   30.17S
ROLLA          SUNNY     73  49  42 NW15      30.18R
SEDALIA        SUNNY     75  48  38 NW13      30.22R
WHITEMAN AFB   SUNNY     74  41  31 NW9G21    30.21R
WARRENSBURG    SUNNY     72  41  33 N12G18    30.22S
OSAGE BEACH    SUNNY     74  49  41 NW12G17   30.20S

$$
MOZ051-052-059>065-241800-
...EAST CENTRAL MISSOURI...

CITY           SKY/WX    TMP DP  RH WIND       PRES   REMARKS
ST LOUIS INTL  MOSUNNY   77  47  34 NW14G21   30.14S
SPIRIT OF STL  MOSUNNY   75  49  39 NW12G22   30.14R
ST CHARLES     SUNNY     75  48  38 NW12      30.13R

$$
MOZ072>076-082>087-097>100-106>115-241800-
...SOUTH CENTRAL AND SOUTHEAST MISSOURI...

CITY           SKY/WX    TMP DP  RH WIND       PRES   REMARKS
CAPE GIRARDEAU SUNNY     78  55  44 NW14      30.11S
FARMINGTON     SUNNY     74  51  44 NW10G17   30.16S
POPLAR BLUFF   CLOUDY    79  58  48 N12       30.12F
WEST PLAINS    MOSUNNY   76  52  43 VRB6      30.19S

$$




USA.gov is the U.S. government's official web portal to all federal, state and local government web resources and services.